sat.trackr.live / text

‹ back to catalog

2024-199R

NORAD 61750 · 2024-199R

PAYLOAD ACTIVE UNKNOWN

§ Identity

Operator
Country
TBD
Launch date
2024-11-04
Launch site
VOSTO
Launch vehicle
Mass (kg)
RCS (m²)

External: N2YO · Heavens-Above · Gunter

§ Orbital elements

Epoch: 2026-09-22T20:20:57.681312Z

Period
92.16 min
Inclination
97.2774°
Eccentricity
0.0002743
Mean motion
15.62513405 rev/d
Perigee alt
378.5 km
Apogee alt
382.3 km
Semi-major
6,758.5 km
B*
4.1134e-4
RAAN
143.9118°
Arg perigee
284.3359°
Mean anomaly
75.7594°
Rev number
15,276

§ Raw data

2024-199R1 61750U 24199R   26265.84788983  .00036582  00000+0  41134-3 0  99992 61750  97.2774 143.9118 0002743 284.3359  75.7594 15.62513405152764

JSON: /api/v1/satellites/61750 · /tle

For live sub-satellite position, see the globe view (requires WebGL).

§ Visibility from observer

Set your observer location to see the next 7 days of passes ≥ 10°. The values pass through the URL so the page stays shareable.

No JS? Fill the form by hand. The geolocation button needs JavaScript.

§ Radio — SatNOGS DB

ModeDescriptionDownlinkUplink
LoRa 125k LoRa 438.100 MHz
FSK Mode U - Transmitter 435.600 MHz

2 transmitters · refreshed weekly from db.satnogs.org